Iridium 39

operational
NORAD ID: 25042 Int'l Des: 1997-069 Owner: IRID Country: US Constellation: iridium
LEOCIRCULARPOLAR

Iridium 39について

説明を読み込み中...

リアルタイム位置

3D地球を読み込み中...

次回通過

高度履歴

Altitude vs Time

uPlot chart will show altitude changes over time

軌道要素

1 25042U 97069D 25350.88064315 .00000671 00000-0 16936-3 0 9996
2 25042 86.3919 132.8556 0019423 59.8739 300.4387 14.49511774475421
Epoch: Dec 16, 2025 • Age: 13 hours

現在のステータス

高度 751.7 km
速度 7.47 km/s
衛星直下点 -31.97°S, 83.01°E
打ち上げ日 Nov 9, 1997
運用期間 28.1 years
タイプ communications

技術仕様

分類 Payload
質量 662.00 kg
乾燥質量 556.00 kg
総質量 662.00 kg
長さ 3.50 m
直径 1.00 m
スパン 5.00 m
形状 Box + 2 Pan
製造者 MOTO/LMMS
バスタイプ LM700
フェーズステータス In Orbit
所有者/国 IRID/US

大規模コンステレーション

Loading constellations...